[Iaude] MPEC L85: 2024 LU1 [a=1.57,e=0.38,i=4.0,H=26.0]

mpec at cfa.harvard.edu mpec at cfa.harvard.edu
Fri Jun 7 13:40:12 EDT 2024


M.P.E.C. 2024-L85                                  Issued 2024 June 7, 17:38 UT

     The Minor Planet Electronic Circulars contain information on unusual
         minor planets, routine data on comets and natural satellites,
         and occasional editorial announcements.  They are published
    on behalf of Division F of the International Astronomical Union by the
          Minor Planet Center, Smithsonian Astrophysical Observatory,
                          Cambridge, MA 02138, U.S.A.
			  
             Prepared using the Tamkin Foundation Computer Network

                              MPC at CFA.HARVARD.EDU
            URL https://www.minorplanetcenter.net/    ISSN 1523-6714

                                    2024 LU1                                    


Observations:
     K24L01U* C2024 06 06.33070114 29 41.079-10 17 06.39         20.75wXEL085F51
     K24L01U  C2024 06 06.35349514 29 34.695-10 18 32.57         20.86wXEL085F51
     K24L01U  C2024 06 06.36488414 29 31.527-10 19 15.26         20.94wXEL085F51
     K24L01U  C2024 06 06.43068014 29 13.436-10 23 21.48         20.81GVEL085F51
     K24L01U  C2024 06 06.43132214 29 13.262-10 23 23.89         20.94GVEL085F51
     K24L01U KC2024 06 06.50320914 29 00.874-10 24 44.10         20.9 GVEL085474
     K24L01U KC2024 06 06.50685414 28 59.942-10 24 58.18         20.6 GVEL085474
     K24L01U KC2024 06 06.51049914 28 58.980-10 25 12.14         20.3 GVEL085474
     K24L01U KC2024 06 06.51414414 28 58.039-10 25 25.57         20.7 GVEL085474
     K24L01U 2C2024 06 06.90305514 27 41.379-10 55 26.20         20.0 GVEL085J04
     K24L01U 2C2024 06 06.90820914 27 39.802-10 55 48.67         21.0 GVEL085J04
     K24L01U 1C2024 06 06.90974 14 27 34.76 -10 56 42.1          20.9 VXEL085033
     K24L01U 1C2024 06 06.91228 14 27 34.00 -10 56 52.8          20.3 VXEL085033
     K24L01U 1C2024 06 06.91385 14 27 33.59 -10 56 59.6          20.5 VXEL085033
     K24L01U |C2024 06 06.98481014 27 27.460-10 57 56.60         20.4 GVEL085807
     K24L01U |C2024 06 06.98930014 27 26.170-10 58 16.10         20.6 GVEL085807
     K24L01U |C2024 06 06.99366014 27 24.940-10 58 35.20         20.6 GVEL085807
     K24L01U KC2024 06 07.11858214 26 50.86 -11 11 15.6          20.9 GVEL085H21
     K24L01U KC2024 06 07.12142714 26 50.01 -11 11 28.1          20.8 GVEL085H21
     K24L01U KC2024 06 07.12427114 26 49.16 -11 11 40.7          20.6 GVEL085H21
     K24L01U KC2024 06 07.12739914 26 48.24 -11 11 54.3          20.6 GVEL085H21
     K24L01U KC2024 06 07.52450614 25 06.022-11 37 19.20         20.6 GVEL085474
     K24L01U KC2024 06 07.52815014 25 04.958-11 37 35.87         20.8 GVEL085474
     K24L01U KC2024 06 07.53179414 25 03.862-11 37 52.54         20.8 GVEL085474

Observer details:
033 Karl Schwarzschild Observatory, Tautenburg.  Observers C. Heogner, F.
    Ludwig, M. Hartmann, B. Stecklum.  Measurer B. Stecklum.  1.34-m f/3
    Schmidt + CCD.
474 Mount John Observatory, Lake Tekapo.  Observers A. C. Gilmore, P. M.
    Kilmartin.  Measurer P. M. Kilmartin.  1.0-m f/7.7 Reflector + CCD.
807 Cerro Tololo Observatory, La Serena.  Observers T. Linder, R. Holmes.
    0.61-m f/6.8 Ritchey-Chretien + CCD.
F51 Pan-STARRS 1, Haleakala.  Observers J. Herman, T. Lowe, P. Minguez, A.
    Schultz, I. Smith.  Measurers K. Chambers, T. de Boer, J. Fairlamb, H.
    Gao, M. Huber, C.-C. Lin, E. Magnier, Y. Ramanjooloo, R. Wainscoat, R.
    Weryk.  1.8-m Ritchey-Chretien + CCD.
H21 Astronomical Research Observatory, Westfield.  Observer R. Holmes.
    Measurers T. Linder, R. Holmes, L. Horn.  0.81-m f/4.0 astrograph + CCD.
J04 ESA Optical Ground Station, Tenerife.  Observers D. Abreu, M. Micheli, F.
    Ocana, L. Conversi.  Measurers M. Micheli, R. Kresken, F. Ocana.
    1.0-m f/4.4 reflector + CCD.

Orbital elements:
2024 LU1                                                 Earth MOID = 0.0104 AU
Epoch 2024 Mar. 31.0 TT = JDT 2460400.5                 Veres                   
M 307.99963              (2000.0)            P               Q                  
n   0.49941381     Peri.  219.01472     +0.43726834     +0.89677110             
a   1.5733633      Node    77.00978     -0.80671484     +0.42444644             
e   0.3776771      Incl.    3.99040     -0.39750164     +0.12508721             
P   1.97           H   26.02          G   0.15           U   7                  
Residuals in seconds of arc
240606 F51  0.0   0.1+    240606 474  0.2+  0.2+    240606 807  0.1+  0.1+
240606 F51  0.2-  0.1-    240606 J04  0.0   0.3-    240607 H21  0.1-  0.1+
240606 F51  0.1-  0.1+    240606 J04 (0.7-  1.0-)   240607 H21  0.2-  0.1+
240606 F51  0.2-  0.0     240606 033 (0.9+  0.1+)   240607 H21  0.2-  0.0
240606 F51  0.2-  0.0     240606 033  0.0   0.1-    240607 H21  0.0   0.1+
240606 474  0.0   0.1+    240606 033  0.3+  0.3-    240607 474  0.2-  0.0
240606 474  0.3+  0.1-    240606 807  0.1+  0.0     240607 474  0.2+  0.0
240606 474  0.1+  0.3-    240606 807  0.1-  0.1+    240607 474  0.0   0.0

Ephemeris:
2024 LU1                 a,e,i = 1.57, 0.38, 4                   q = 0.9791
Date    TT    R. A. (2000) Decl.     Delta      r    Elong.  Phase     V
2024 05 08    15 06 28.2 -03 55 28   0.1820  1.1872   166.8    11.2    23.4
...
2024 05 23    14 55 03.9 -04 12 59   0.1081  1.1129   157.3    20.5    22.4
...
2024 05 31    14 44 37.9 -06 06 22   0.07323 1.0777   149.6    28.4    21.8
...
2024 06 06    14 30 47.3 -09 55 16   0.04852 1.0538   142.8    35.6    21.0
2024 06 07    14 27 17.1 -11 00 08   0.04452 1.0501   141.5    36.9    20.9
2024 06 08    14 23 09.6 -12 18 09   0.04057 1.0465   140.1    38.4    20.7
...
2024 06 14    13 18 57.4 -31 07 24   0.01867 1.0263   124.3    54.8    19.4
...
2024 06 22    04 23 19.2 -28 55 32   0.02251 1.0044    57.6   121.3    22.7
...
2024 07 07    03 24 58.8 -08 05 57   0.08114 0.9813    62.0   113.8    24.9

M. P. C. Staff               (C) Copyright 2024 MPC           M.P.E.C. 2024-L85





More information about the Iaude mailing list